Location: 相模原市立博物館
(35.5593°N, 139.3931°E)
Time: 05:02:05
(UTC+09:00)

AO-109 - Visible Passes

Search period start: 20 January 2022 00:00
Search period end: 30 January 2022 00:00
Orbit: 478 x 516 km, 60.7° (Epoch: 19 January)

Date Brightness Start Highest point End Pass type
(mag) Time Alt. Az. Time Alt. Az. Time Alt. Az.
20 Jan ? 05:50:53 10° S 05:54:05 25° ESE 05:57:16 10° ENE visible
21 Jan ? 05:29:06 10° S 05:32:12 23° ESE 05:35:16 10° ENE visible
22 Jan ? 05:07:20 10° SSE 05:10:18 21° ESE 05:13:15 10° ENE visible
23 Jan ? 04:45:33 10° SSE 04:48:23 19° ESE 04:51:12 10° ENE visible
24 Jan ? 04:24:10 12° SSE 04:26:27 18° ESE 04:29:07 10° ENE visible
24 Jan ? 06:00:21 10° WSW 06:03:53 33° NW 06:07:24 10° NNE visible
25 Jan ? 04:05:06 16° ESE 04:05:06 16° ESE 04:07:01 10° ENE visible
25 Jan ? 05:39:47 20° WSW 05:41:54 36° NW 05:45:29 10° NNE visible
26 Jan ? 05:19:57 39° NW 05:19:57 39° NW 05:23:33 10° NNE visible
27 Jan ? 04:59:40 25° N 04:59:40 25° N 05:01:36 10° NNE visible
28 Jan ? 04:39:06 13° NNE 04:39:06 13° NNE 04:39:38 10° NNE visible
